Location: Newark
(44.2003°N, 3.2583°E)
Time: 15:19:25
(UTC+00:00)

Explorer 7 - Visible Passes

Search period start: 17 October 2019 00:00
Search period end: 27 October 2019 00:00
Orbit: 485 x 680 km, 50.3° (Epoch: 17 October)

Date Brightness Start Highest point End Pass type
(mag) Time Alt. Az. Time Alt. Az. Time Alt. Az.
17 Oct 7.6 18:08:15 10° WNW 18:12:10 50° SW 18:16:09 11° SE visible
18 Oct 8.4 18:13:26 10° WNW 18:17:04 32° SW 18:20:54 10° SSE visible
19 Oct 9.2 18:18:51 10° W 18:21:54 21° SW 18:25:05 10° S visible
20 Oct 9.7 18:24:52 10° WSW 18:26:41 13° SW 18:28:33 10° SSW visible
